This demonstration page uses our WeatherBlox Daily Observations layout. Learn more.

39.92423, -83.80882

Hourly Observations for July 12, 2018

Temp ( °F °C ) Dew Point ( °F °C ) Humidity (%) Winds ( mph kmh ) Pressure ( in mb ) Visibility ( mi km ) Precip ( " mm )
12:56 am 00:56 Clear 61 16.1 56 13.3 84 84 ENE 3 6 30.17 1022 10 16.0934 0 0
1:56 am 01:56 Clear 63 17.2 55 12.8 76 76 ENE 3 6 30.17 1022 10 16.0934 0 0
2:56 am 02:56 Clear 61 16.1 55 12.8 81 81 NNE 3 6 30.17 1022 10 16.0934 0 0
3:56 am 03:56 Clear 60 15.6 54 12.2 80 80 E 3 6 30.17 1022 10 16.0934 0 0
4:56 am 04:56 Clear 58 14.4 55 12.8 90 90 NE 3 6 30.16 1022 10 16.0934 0 0
5:56 am 05:56 Clear 57 13.9 54 12.2 90 90 ENE 3 6 30.17 1022 10 16.0934 0 0
6:56 am 06:56 Sunny 57 13.9 54 12.2 90 90 ENE 6 9 30.18 1022 10 16.0934 0 0
7:56 am 07:56 Sunny 63 17.2 58 14.4 84 84 undefined N/A 30.19 1022 10 16.0934 0 0
8:56 am 08:56 Sunny 69 20.6 59 15 70 70 E 6 9 30.2 1023 10 16.0934 0 0
9:56 am 09:56 Sunny 73 22.8 57 13.9 57 57 undefined N/A 30.21 1023 10 16.0934 0 0
10:56 am 10:56 Sunny 76 24.4 55 12.8 48 48 E 8 13 30.21 1023 10 16.0934 0 0
11:56 am 11:56 Sunny 78 25.6 55 12.8 45 45 ENE 7 11 30.22 1023 10 16.0934 0 0
12:56 pm 12:56 Sunny 80 26.7 55 12.8 42 42 NE 10 17 30.22 1023 10 16.0934 0 0
1:56 pm 13:56 Sunny 80 26.7 58 14.4 47 47 ENE 7 11 30.21 1023 10 16.0934 0 0
2:56 pm 14:56 Sunny 81 27.2 56 13.3 42 42 E 12 19 30.19 1022 10 16.0934 0 0
3:56 pm 15:56 Sunny 81 27.2 56 13.3 42 42 ENE 9 15 30.18 1022 10 16.0934 0 0
4:56 pm 16:56 Sunny 82 27.8 58 14.4 44 44 ENE 8 13 30.16 1022 10 16.0934 0 0
5:56 pm 17:56 Sunny 81 27.2 57 13.9 44 44 ENE 9 15 30.17 1022 10 16.0934 0 0
6:56 pm 18:56 Sunny 80 26.7 56 13.3 44 44 ENE 7 11 30.16 1022 10 16.0934 0 0
7:56 pm 19:56 Sunny 77 25 59 15 54 54 ENE 6 9 30.15 1021 10 16.0934 0 0
8:56 pm 20:56 Sunny 73 22.8 60 15.6 64 64 ENE 5 7 30.14 1021 10 16.0934 0 0
9:56 pm 21:56 Clear 68 20 61 16.1 78 78 E 3 6 30.17 1022 10 16.0934 0 0
10:56 pm 22:56 Clear 68 20 59 15 73 73 Calm 30.17 1022 10 16.0934 0 0
11:56 pm 23:56 Clear 65 18.3 59 15 81 81 NE 3 6 30.17 1022 10 16.0934 0 0

Powered by AerisWeather